Wind_Speed
14 13 13 13 13 11 11 12 12 13 12 13 14 14 16 17 20 23 24 28 30 26 24 20 16 11 7 9 11 6 4 6 2 7 9 9 7 9 9 13 14 11 8 20 19
15 14 14 13 13 12 11 10 10 12 13 11 12 12 14 15 16 19 21 24 25 26 26 23 19 14 12 9 8 3 8 5 5 4 13 9 6 8 10 12 12 13 16 16 17
15 15 15 15 15 14 12 11 10 10 12 12 10 10 12 12 9 11 18 19 23 23 24 24 20 16 15 11 11 7 15 10 0 3 7 8 8 7 9 9 12 15 18 14 17
17 16 15 15 16 15 14 13 11 11 11 11 11 9 8 8 3 11 16 16 20 23 24 26 23 20 18 15 12 12 6 4 3 1 7 9 10 8 8 6 12 15 17 14 17
18 18 18 17 17 17 16 14 14 12 12 11 12 12 10 10 12 19 12 14 18 22 26 28 26 23 22 14 12 12 9 8 7 7 9 12 11 10 9 9 13 16 17 16 16
16 18 20 21 20 20 18 17 16 15 14 12 13 13 12 12 9 19 16 14 17 21 24 28 27 23 20 18 14 9 10 10 8 9 12 14 13 10 12 12 13 16 15 18 20
15 15 17 20 21 23 23 20 18 18 16 15 14 14 14 8 9 15 15 14 15 19 24 27 25 22 23 18 17 15 12 9 7 12 13 15 13 15 14 14 14 16 16 20 21
18 17 17 18 18 20 23 23 22 19 18 17 17 17 16 11 13 15 16 16 17 18 22 19 25 23 23 19 19 20 17 18 13 14 13 19 17 17 15 16 16 16 18 20 21
19 18 19 20 17 17 19 20 22 22 20 18 18 19 17 14 10 12 18 15 16 18 21 21 22 29 20 23 21 21 24 20 18 18 14 16 16 16 15 16 17 18 18 20 21
19 19 19 21 19 18 17 17 18 21 21 20 20 19 15 11 9 6 12 15 17 16 19 25 23 29 30 31 30 27 25 24 22 22 17 14 5 13 14 15 17 20 21 22 22
20 19 20 22 20 19 17 16 15 16 23 21 13 15 3 10 14 10 11 16 18 19 22 25 29 39 36 33 29 26 24 17 20 21 23 20 16 14 14 16 16 19 22 24 24
23 20 18 21 21 20 18 16 17 20 27 23 25 30 25 17 17 15 15 19 23 25 23 22 36 34 31 33 31 29 27 23 18 21 26 21 21 20 17 17 18 20 21 24 25
25 24 21 20 21 21 19 19 17 19 27 25 23 26 27 28 31 23 23 22 24 26 29 33 30 32 33 34 35 34 31 25 23 23 23 20 23 21 19 18 19 20 21 22 27
26 26 24 20 22 19 19 17 15 15 16 22 17 21 27 24 27 29 29 27 26 28 28 30 26 31 37 38 36 36 31 27 26 23 21 27 26 29 25 23 22 22 24 24 26
30 29 24 25 21 21 23 17 11 8 7 3 12 11 17 25 9 17 23 33 32 27 29 35 32 33 38 41 39 37 31 30 28 28 30 31 30 22 25 27 24 22 24 25 25
33 32 29 27 22 22 19 17 10 7 16 11 14 15 20 24 19 12 21 30 28 27 28 32 28 33 33 36 35 34 32 32 33 32 25 33 31 33 24 23 20 21 21 25 26
32 32 31 27 21 21 18 15 10 19 9 17 18 18 23 21 22 23 22 32 39 37 35 30 37 31 34 35 37 37 37 29 27 26 21 33 34 33 25 20 22 21 21 24 27
28 30 28 26 25 24 20 21 24 17 31 8 18 22 27 23 22 24 22 32 37 32 28 34 30 39 34 39 40 44 45 37 26 18 20 35 34 39 29 20 15 18 18 17 25
29 27 25 26 25 26 26 35 35 31 20 24 19 24 29 29 24 26 29 30 35 39 35 31 34 23 40 33 37 43 50 45 40 36 29 35 35 31 23 29 28 23 22 20 23
30 27 26 25 24 28 33 55 29 30 17 23 34 27 30 32 29 25 30 30 31 35 34 29 24 30 31 34 33 48 42 46 45 28 26 35 33 33 32 30 27 25 21 20 22
29 24 23 23 20 29 40 43 37 36 30 32 30 35 38 32 36 33 32 30 27 33 35 34 28 23 28 42 44 38 50 46 46 47 21 20 30 33 24 21 28 25 24 21 20
29 18 18 18 18 22 35 35 33 36 32 36 36 35 37 34 37 33 33 32 29 30 38 35 30 28 28 35 33 39 43 48 40 39 44 42 34 27 26 21 21 20 17 20 21
26 24 22 18 24 28 30 33 33 35 36 39 40 41 33 38 34 36 30 25 21 27 32 34 36 30 29 27 33 42 45 48 51 41 44 33 37 35 20 24 28 26 24 20 13
20 16 12 22 18 24 28 32 29 28 35 33 38 34 42 40 38 35 35 31 27 26 27 24 33 41 30 34 30 39 39 44 46 47 39 48 43 38 34 23 22 21 20 22 17
11 14 15 19 20 19 21 19 24 23 23 27 31 37 39 44 39 38 36 33 35 31 31 27 31 35 37 32 26 32 37 39 47 46 48 42 45 42 39 35 30 27 24 21 20
17 13 16 23 23 28 27 21 22 28 23 24 19 27 35 38 39 39 38 35 31 34 32 34 31 29 30 31 34 32 32 40 38 44 49 45 49 43 42 37 30 31 29 27 24
19 19 18 20 17 21 23 27 24 21 26 26 18 21 14 14 24 27 29 39 37 31 30 34 32 32 32 30 26 34 37 35 35 40 42 47 52 42 43 40 41 41 37 35 30
Wind_Direction
281 279 281 284 287 293 291 282 275 274 278 283 278 278 274 270 258 245 242 245 246 246 241 242 246 257 265 240 245 261 248 267 164 112 135 133 135 134 152 152 153 167 168 168 162
284 281 279 280 281 285 292 294 288 283 282 283 288 278 279 271 266 255 245 235 236 237 236 231 238 244 238 241 232 255 69 26 121 77 165 131 151 156 141 157 162 142 163 194 175
287 286 284 282 282 285 286 289 293 293 288 287 288 290 278 280 289 262 251 231 226 222 226 228 229 226 226 220 229 224 210 330 3 214 182 157 167 162 157 167 182 170 170 183 184
282 283 283 279 277 278 283 287 291 294 294 289 284 289 287 270 148 258 250 235 222 215 212 218 216 221 220 222 227 247 250 268 252 299 195 181 173 173 165 184 182 179 177 183 188
282 279 277 278 278 276 276 279 286 291 292 291 288 282 283 272 242 268 243 226 224 214 211 213 215 216 222 221 228 235 243 261 260 233 193 182 186 186 181 164 168 178 177 179 185
285 279 276 275 274 274 275 277 282 285 286 287 285 287 282 282 263 255 246 229 221 212 209 207 214 216 225 229 232 221 243 244 255 216 192 188 189 188 191 168 172 177 178 180 181
296 288 279 271 270 273 275 273 275 281 282 282 281 280 277 272 242 255 243 240 225 216 207 213 211 221 226 228 229 230 240 238 228 190 184 178 192 197 196 181 183 179 179 185 186
303 301 295 289 281 272 271 272 273 272 275 278 278 278 272 270 264 253 240 231 226 216 210 214 216 219 221 232 239 232 226 226 186 184 187 188 183 184 190 190 193 189 188 190 193
295 294 294 294 292 287 278 273 269 270 269 270 273 276 287 268 257 243 233 225 221 214 211 206 210 217 221 221 229 218 223 229 173 186 200 213 221 178 185 195 198 199 200 199 199
297 295 290 288 292 292 288 283 275 269 263 261 263 270 263 254 226 210 211 205 209 203 207 211 212 212 216 214 222 215 221 218 188 192 203 212 151 169 191 194 202 205 206 205 206
300 299 296 291 292 289 291 291 288 300 261 248 270 219 251 183 214 250 210 197 197 203 203 203 203 210 212 211 215 222 216 225 224 191 196 204 215 189 203 203 206 214 210 213 212
293 294 292 288 288 289 292 286 281 273 274 261 240 241 229 228 245 224 217 198 201 212 204 210 214 213 212 214 216 228 234 227 215 182 193 205 210 211 210 212 213 217 219 217 217
290 289 288 284 283 285 285 281 281 281 281 275 257 241 238 236 236 225 217 210 210 212 212 213 218 209 212 215 218 224 232 231 218 181 206 216 225 214 217 230 221 221 223 223 218
286 287 287 286 281 277 275 281 284 292 294 271 254 239 221 218 240 231 213 212 213 219 216 223 218 215 212 218 216 223 221 233 225 195 226 210 246 209 220 222 230 228 222 222 219
284 282 278 276 271 269 271 268 271 285 280 173 195 221 211 201 216 219 208 210 214 216 212 222 218 216 217 217 215 223 220 226 233 217 219 213 224 235 216 211 217 229 229 221 221
280 277 273 271 268 262 257 257 247 229 238 230 207 201 194 203 211 201 204 207 216 219 225 225 226 221 222 220 219 218 226 230 231 239 238 236 218 233 207 218 214 222 228 227 219
278 274 272 263 256 252 243 221 224 226 235 222 211 204 202 206 209 213 201 199 203 208 220 224 223 226 218 220 218 216 221 230 232 224 239 232 223 231 226 221 214 223 227 227 223
274 270 267 264 252 243 227 209 232 228 226 215 215 215 208 207 213 214 210 209 213 214 218 217 220 217 217 219 217 215 215 220 224 227 223 232 234 231 230 217 214 219 230 238 221
284 272 268 262 243 233 220 218 228 232 232 228 228 223 216 217 222 218 218 217 214 210 218 218 227 227 220 222 218 219 220 222 231 233 237 229 225 240 231 231 232 238 241 231 225
298 286 280 261 250 233 225 232 237 233 236 233 232 225 226 218 215 220 217 222 220 218 215 226 240 224 221 221 227 223 221 221 228 236 230 228 237 222 221 231 229 231 232 232 226
307 308 273 272 257 231 232 241 245 236 239 241 237 235 233 229 224 222 230 231 224 221 219 221 227 232 216 214 219 217 229 222 228 233 243 243 234 227 223 221 223 225 227 228 225
298 292 278 273 261 249 247 247 246 242 244 240 234 236 237 235 234 234 221 231 228 218 214 215 222 224 228 227 225 225 224 225 225 226 237 252 246 230 218 216 216 218 216 225 226
287 277 279 254 261 258 259 254 251 248 244 239 239 234 236 238 235 229 225 221 221 212 217 209 220 226 226 228 222 221 223 223 228 229 230 237 239 236 213 231 226 224 233 235 210
289 284 269 261 267 256 256 254 251 243 243 241 237 235 234 238 230 232 227 217 215 211 213 213 220 222 223 224 225 218 223 227 227 233 234 237 239 234 236 231 228 228 223 219 235
288 270 270 255 248 270 258 257 253 264 249 241 243 235 232 234 232 229 227 225 222 225 222 218 226 226 228 239 228 226 222 227 232 231 237 238 235 235 233 229 232 227 230 234 237
284 280 265 260 259 275 261 267 262 259 264 264 267 237 235 238 229 230 224 219 216 218 215 210 222 225 233 228 235 242 234 227 229 237 241 243 246 236 236 240 235 230 231 233 242
271 279 275 277 267 264 269 251 272 263 244 244 275 268 229 248 254 235 228 223 218 212 210 210 215 220 231 229 235 235 234 237 238 233 233 238 243 240 242 239 238 235 238 244 247
Height
3162 3161 3160 3159 3158 3157 3155 3154 3153 3152 3151 3149 3149 3148 3146 3146 3147 3149 3152 3155 3157 3162 3166 3168 3169 3170 3171 3172 3171 3173 3173 3167 3168 3169 3173 3174 3177 3178 3179 3179 3182 3184 3183 3184 3183
3159 3158 3157 3155 3154 3153 3152 3151 3150 3149 3148 3147 3146 3145 3144 3143 3143 3144 3146 3149 3153 3156 3161 3166 3168 3169 3171 3172 3173 3175 3165 3167 3168 3168 3170 3174 3177 3179 3180 3181 3183 3184 3185 3183 3185
3156 3155 3154 3153 3151 3150 3149 3148 3148 3146 3145 3144 3143 3142 3141 3141 3142 3143 3141 3145 3148 3152 3157 3162 3166 3169 3171 3173 3173 3173 3171 3167 3170 3171 3171 3173 3177 3179 3180 3182 3183 3184 3183 3183 3186
3152 3151 3150 3149 3148 3147 3146 3146 3145 3144 3142 3141 3140 3140 3139 3139 3143 3139 3138 3140 3144 3148 3152 3158 3163 3167 3169 3171 3171 3171 3171 3171 3171 3170 3172 3173 3176 3179 3181 3181 3183 3184 3184 3183 3186
3148 3147 3146 3145 3144 3144 3143 3142 3141 3141 3140 3139 3137 3137 3137 3136 3136 3134 3135 3137 3140 3144 3149 3155 3160 3165 3167 3169 3170 3170 3170 3170 3170 3171 3171 3173 3175 3178 3181 3182 3182 3183 3183 3184 3187
3145 3144 3142 3141 3140 3139 3140 3139 3138 3137 3136 3136 3135 3133 3133 3132 3133 3129 3132 3134 3137 3141 3146 3150 3157 3163 3166 3168 3168 3168 3168 3168 3168 3168 3170 3172 3174 3178 3180 3181 3182 3182 3182 3184 3187
3140 3139 3137 3136 3136 3135 3134 3135 3135 3134 3133 3132 3131 3130 3129 3130 3129 3128 3129 3132 3135 3138 3143 3148 3154 3160 3163 3165 3166 3166 3167 3166 3166 3167 3169 3170 3174 3176 3177 3180 3181 3181 3182 3185 3186
3136 3134 3133 3132 3131 3131 3129 3130 3130 3130 3130 3129 3128 3126 3124 3125 3126 3126 3126 3129 3132 3136 3140 3148 3150 3156 3160 3163 3163 3164 3164 3160 3162 3166 3167 3166 3167 3171 3175 3177 3180 3182 3182 3184 3186
3132 3130 3127 3126 3126 3126 3124 3125 3125 3125 3125 3125 3125 3123 3121 3120 3121 3122 3123 3126 3130 3133 3137 3143 3147 3151 3157 3159 3159 3159 3157 3155 3159 3162 3165 3165 3162 3167 3172 3176 3178 3180 3182 3183 3184
3129 3127 3125 3122 3121 3120 3120 3119 3120 3120 3120 3120 3120 3122 3119 3119 3119 3120 3122 3125 3129 3131 3134 3137 3143 3146 3150 3153 3151 3151 3152 3149 3152 3159 3163 3164 3167 3166 3171 3174 3176 3178 3180 3181 3182
3124 3123 3122 3119 3118 3115 3117 3116 3117 3116 3113 3114 3117 3113 3114 3117 3116 3117 3119 3122 3127 3129 3131 3133 3138 3135 3142 3147 3150 3148 3146 3147 3149 3151 3160 3162 3164 3167 3170 3172 3174 3176 3177 3178 3180
3119 3118 3117 3115 3113 3112 3112 3113 3111 3111 3104 3105 3106 3105 3109 3114 3114 3115 3117 3120 3123 3124 3129 3132 3127 3135 3142 3145 3147 3145 3143 3143 3147 3148 3155 3157 3159 3162 3165 3168 3171 3172 3173 3175 3177
3113 3111 3111 3109 3108 3110 3108 3108 3107 3105 3100 3095 3095 3096 3101 3105 3103 3109 3114 3116 3118 3121 3123 3122 3125 3133 3137 3139 3142 3142 3140 3140 3142 3143 3154 3154 3156 3157 3160 3164 3166 3168 3170 3171 3173
3107 3105 3105 3106 3105 3104 3103 3104 3104 3104 3098 3091 3086 3087 3090 3097 3096 3099 3106 3112 3114 3115 3119 3120 3124 3126 3130 3132 3137 3137 3141 3140 3140 3145 3147 3149 3145 3147 3153 3157 3160 3162 3164 3166 3168
3100 3098 3099 3097 3097 3098 3099 3099 3101 3103 3098 3085 3084 3082 3085 3089 3092 3091 3096 3104 3106 3110 3115 3113 3117 3119 3121 3124 3132 3133 3138 3139 3138 3137 3143 3139 3143 3139 3145 3146 3152 3157 3159 3161 3164
3090 3090 3089 3089 3091 3091 3093 3096 3099 3104 3084 3080 3078 3077 3082 3083 3088 3091 3092 3098 3104 3107 3107 3109 3113 3115 3117 3123 3127 3133 3135 3135 3135 3133 3130 3132 3135 3134 3142 3141 3145 3149 3153 3156 3158
3080 3079 3079 3082 3084 3085 3086 3091 3097 3084 3076 3074 3075 3076 3078 3078 3082 3084 3086 3089 3091 3096 3097 3103 3103 3108 3113 3117 3122 3126 3129 3127 3125 3121 3120 3125 3127 3134 3130 3135 3140 3144 3147 3149 3152
3068 3067 3070 3072 3075 3077 3080 3085 3077 3060 3066 3068 3070 3071 3070 3076 3076 3077 3080 3082 3087 3089 3091 3093 3094 3098 3103 3105 3112 3114 3117 3114 3114 3110 3114 3119 3115 3120 3127 3131 3136 3139 3142 3144 3146
3059 3059 3060 3060 3063 3067 3071 3064 3048 3060 3062 3063 3067 3064 3064 3067 3070 3072 3072 3074 3076 3081 3083 3083 3086 3092 3096 3102 3108 3106 3106 3113 3113 3110 3109 3108 3113 3118 3121 3126 3131 3135 3137 3138 3141
3051 3051 3051 3051 3054 3057 3055 3035 3046 3054 3057 3057 3055 3059 3056 3057 3061 3063 3064 3066 3070 3073 3077 3078 3080 3083 3089 3098 3097 3097 3105 3107 3102 3098 3097 3100 3102 3107 3114 3122 3126 3129 3132 3134 3136
3046 3045 3041 3044 3045 3044 3036 3034 3042 3043 3048 3053 3050 3050 3050 3050 3050 3053 3056 3061 3062 3066 3071 3075 3076 3079 3082 3078 3083 3092 3089 3093 3099 3098 3092 3094 3092 3101 3107 3114 3119 3123 3126 3129 3131
3039 3042 3037 3038 3040 3036 3031 3034 3038 3037 3041 3041 3042 3042 3043 3043 3042 3042 3044 3051 3055 3059 3060 3066 3070 3071 3070 3075 3080 3084 3085 3088 3087 3091 3091 3091 3087 3095 3102 3108 3114 3116 3119 3123 3125
3030 3030 3033 3032 3029 3028 3027 3026 3027 3029 3030 3032 3031 3036 3040 3036 3036 3038 3040 3043 3049 3052 3054 3059 3061 3063 3067 3070 3070 3070 3073 3077 3081 3085 3081 3086 3087 3093 3099 3101 3106 3112 3116 3118 3120
3023 3025 3028 3022 3022 3021 3021 3018 3016 3019 3020 3021 3023 3027 3031 3030 3028 3031 3034 3037 3043 3049 3047 3051 3052 3052 3049 3056 3061 3065 3070 3072 3075 3073 3076 3075 3087 3089 3093 3098 3103 3107 3110 3113 3115
3018 3019 3021 3017 3014 3013 3009 3010 3009 3007 3009 3016 3016 3015 3019 3023 3024 3023 3030 3031 3034 3042 3044 3046 3046 3047 3049 3050 3054 3056 3060 3065 3065 3068 3069 3073 3078 3082 3087 3093 3097 3102 3105 3108 3110
3012 3014 3012 3009 3009 3006 3006 3006 3007 3006 3008 3004 3004 3011 3012 3014 3016 3018 3022 3024 3024 3035 3037 3039 3041 3044 3043 3046 3050 3049 3051 3055 3059 3064 3064 3069 3068 3077 3083 3086 3090 3093 3098 3101 3103
3007 3005 3004 3003 3003 3004 3001 2999 2999 3001 3001 3000 2999 2994 2996 3005 3001 3000 3005 3016 3020 3025 3028 3031 3035 3041 3038 3041 3043 3045 3043 3045 3048 3052 3058 3061 3063 3073 3073 3075 3080 3085 3089 3093 3097